FW5161 Eastsound WA US current weather conditions

sailwx.info

Wind from 071 at 4 knots gusting 9

Air temperature 6.1° C
Dewpoint 2.4° C

Last reported at 2019-Nov-20 17:03 UTC.
Time now 2019-Nov-20 17:31 UTC

Location: N 48°40' W 122°58'.
View on Google Maps.

See reports from other nearby stations

  
Tides and Currents Weather Stations Pressure Air Temp Water Temp Dewpoint Dewpoint Depression Visibility Wind Speed Wind Dir Waves Ship Positions
date/time (UTC)wind fromknots sea level pressurealtimeterstation pressurevisibilityair tempwater tempwave heightnotes
2019-Nov-20 17:03 071 4 gusting 9 6.1
2019-Nov-20 16:53 087 3 gusting 6 6.1
2019-Nov-20 16:48 069 3 gusting 6 6.1
2019-Nov-20 16:43 070 3 gusting 6 5.6
2019-Nov-20 16:38 086 4 gusting 6 5.6
2019-Nov-20 16:33 042 3 gusting 6 5.6
2019-Nov-20 16:28 069 3 gusting 6 5.6
2019-Nov-20 16:23 123 3 gusting 7 5.6
2019-Nov-20 16:18 128 2 gusting 7 5.6
2019-Nov-20 16:13 110 2 gusting 6 5.6
2019-Nov-20 16:08 083 2 gusting 6 5.6
2019-Nov-20 16:03 019 2 gusting 6 5.6
2019-Nov-20 15:58 083 2 gusting 6 5.0
2019-Nov-20 15:53 075 2 gusting 5 5.6
2019-Nov-20 15:48 087 3 gusting 5 5.6
2019-Nov-20 15:43 082 2 gusting 5 5.6
2019-Nov-20 15:38 052 2 gusting 4 5.6
2019-Nov-20 15:33 109 2 gusting 4 5.6
2019-Nov-20 15:28 077 2 gusting 4 5.6
2019-Nov-20 15:23 083 2 gusting 5 5.6
2019-Nov-20 15:18 069 2 gusting 5 5.6
2019-Nov-20 15:13 097 2 gusting 6 5.6
2019-Nov-20 15:08 067 2 gusting 6 5.6
2019-Nov-20 15:03 075 2 gusting 4 5.6
2019-Nov-20 14:58 071 2 gusting 4 5.6
2019-Nov-20 14:53 093 2 gusting 4 5.6
2019-Nov-20 14:48 114 2 gusting 5 5.6
2019-Nov-20 14:43 095 2 gusting 5 5.6
2019-Nov-20 14:38 106 2 gusting 7 5.6
2019-Nov-20 14:33 054 2 gusting 7 5.6
2019-Nov-20 14:28 071 2 gusting 6 5.6
2019-Nov-20 14:23 098 2 gusting 6 5.6
2019-Nov-20 14:18 118 2 gusting 6 5.6
2019-Nov-20 14:13 111 2 gusting 5 5.6
2019-Nov-20 14:08 110 2 gusting 6 6.1
2019-Nov-20 14:03 094 2 gusting 6 6.1
2019-Nov-20 13:58 096 3 gusting 6 6.1
2019-Nov-20 13:53 112 2 gusting 6 6.1
2019-Nov-20 13:48 102 1 gusting 6 5.6
2019-Nov-20 13:43 075 2 gusting 6 5.6
2019-Nov-20 13:38 101 2 gusting 6 5.6
2019-Nov-20 13:33 003 2 gusting 6 5.6
2019-Nov-20 13:28 069 2 gusting 5 5.6
2019-Nov-20 13:23 125 2 gusting 6 5.6
2019-Nov-20 13:18 081 2 gusting 6 5.6
2019-Nov-20 13:13 098 2 gusting 6 5.6
2019-Nov-20 13:08 083 2 gusting 6 5.6
2019-Nov-20 13:03 108 2 gusting 6 5.6
2019-Nov-20 12:58 077 2 gusting 6 5.6
2019-Nov-20 12:53 100 2 gusting 6 5.6
2019-Nov-20 12:48 083 1 gusting 6 5.6
2019-Nov-20 12:43 079 2 gusting 6 5.6
2019-Nov-20 12:38 110 2 gusting 6 5.6
2019-Nov-20 12:33 103 3 gusting 7 5.6
2019-Nov-20 12:28 114 2 gusting 7 5.6
2019-Nov-20 12:23 096 2 gusting 5 6.1
2019-Nov-20 12:18 078 2 gusting 4 6.1
2019-Nov-20 12:13 087 2 gusting 5 6.1
2019-Nov-20 12:08 101 2 gusting 6 6.1
2019-Nov-20 12:03 107 2 gusting 6 6.1
2019-Nov-20 11:58 097 2 gusting 6 6.1
2019-Nov-20 11:53 082 3 gusting 7 6.1
2019-Nov-20 11:48 091 2 gusting 7 6.1
2019-Nov-20 11:43 089 2 gusting 6 6.1
2019-Nov-20 11:38 087 2 gusting 5 6.1
2019-Nov-20 11:33 086 2 gusting 6 6.7
2019-Nov-20 11:28 075 2 gusting 6 6.7
2019-Nov-20 11:23 097 3 gusting 6 6.7
2019-Nov-20 11:18 056 3 gusting 6 6.7
2019-Nov-20 11:13 045 2 gusting 8 6.7
2019-Nov-20 11:08 079 2 gusting 8 6.7
2019-Nov-20 11:03 079 2 gusting 6 6.7
2019-Nov-20 10:58 112 2 gusting 6 6.7
2019-Nov-20 10:53 087 2 gusting 6 6.7
2019-Nov-20 10:48 091 2 gusting 7 6.7
2019-Nov-20 10:43 094 2 gusting 7 6.7
2019-Nov-20 10:38 080 3 gusting 6 6.7
2019-Nov-20 10:33 063 3 gusting 6 6.7
2019-Nov-20 10:28 028 3 gusting 7 6.7
2019-Nov-20 10:23 072 3 gusting 7 6.7
2019-Nov-20 10:18 088 2 gusting 6 6.7
2019-Nov-20 10:13 087 2 gusting 8 6.7
2019-Nov-20 10:08 091 3 gusting 8 6.7
2019-Nov-20 10:03 058 3 gusting 8 6.7
2019-Nov-20 09:58 077 3 gusting 6 6.7
2019-Nov-20 09:53 122 3 gusting 6 6.7
2019-Nov-20 09:48 114 3 gusting 6 6.7
2019-Nov-20 09:43 067 3 gusting 6 6.7
2019-Nov-20 09:38 091 3 gusting 6 6.7
2019-Nov-20 09:33 131 4 gusting 6 6.7
2019-Nov-20 09:28 084 3 gusting 6 6.7
2019-Nov-20 09:23 054 3 gusting 7 6.7
2019-Nov-20 09:18 089 3 gusting 7 6.7
2019-Nov-20 09:13 110 2 gusting 7 6.7
2019-Nov-20 09:08 116 3 gusting 6 6.7
2019-Nov-20 09:03 108 3 gusting 6 6.7
2019-Nov-20 08:58 108 4 gusting 6 7.2
2019-Nov-20 08:53 096 3 gusting 6 7.2
2019-Nov-20 08:48 078 3 gusting 6 6.7
2019-Nov-20 08:43 071 3 gusting 7 6.7
2019-Nov-20 08:38 097 3 gusting 7 6.7
2019-Nov-20 08:33 117 2 gusting 6 6.7
2019-Nov-20 08:28 096 3 gusting 6 6.7
2019-Nov-20 08:23 072 4 gusting 7 6.7
2019-Nov-20 08:18 089 4 gusting 7 6.7
2019-Nov-20 08:13 114 4 gusting 8 6.7
2019-Nov-20 08:08 092 3 gusting 8 6.7
2019-Nov-20 08:03 074 3 gusting 6 6.7
2019-Nov-20 07:58 105 3 gusting 5 7.2
2019-Nov-20 07:53 078 3 gusting 8 7.2
2019-Nov-20 07:48 102 3 gusting 8 7.2
2019-Nov-20 07:43 090 3 gusting 7 7.2
2019-Nov-20 07:38 086 2 gusting 6 7.2
2019-Nov-20 07:33 093 2 gusting 5 7.2
2019-Nov-20 07:28 094 3 gusting 5 7.8
2019-Nov-20 07:23 077 3 gusting 7 7.8
2019-Nov-20 07:18 104 3 gusting 7 7.8
2019-Nov-20 07:13 094 3 gusting 6 7.8
2019-Nov-20 07:08 109 3 gusting 6 7.8
2019-Nov-20 07:03 055 2 gusting 6 7.8
2019-Nov-20 06:58 078 2 gusting 6 7.8
2019-Nov-20 06:53 063 3 gusting 8 7.8
2019-Nov-20 06:48 106 3 gusting 8 7.8
2019-Nov-20 06:43 073 2 gusting 6 7.8
2019-Nov-20 06:38 081 2 gusting 6 7.8
2019-Nov-20 06:33 039 2 gusting 6 7.8
2019-Nov-20 06:28 075 1 gusting 6 7.8
2019-Nov-20 06:23 023 1 gusting 6 7.8
2019-Nov-20 06:18 138 1 gusting 5 7.8
2019-Nov-20 06:13 153 1 gusting 3 7.8
2019-Nov-20 06:08 168 1 gusting 3 7.8
2019-Nov-20 06:03 123 0 gusting 5 7.8
2019-Nov-20 05:58 094 0 gusting 5 7.8
2019-Nov-20 05:53 185 0 gusting 4 7.8
2019-Nov-20 05:48 162 0 gusting 4 7.8
2019-Nov-20 05:43 154 0 gusting 4 7.8
2019-Nov-20 05:38 275 1 gusting 4 7.8
2019-Nov-20 05:33 138 1 gusting 4 7.2
2019-Nov-20 05:28 114 1 gusting 4 7.2
2019-Nov-20 05:23 054 1 gusting 4 7.2
2019-Nov-20 05:18 096 1 gusting 2 7.2
2019-Nov-20 05:13 069 1 gusting 3 7.2
2019-Nov-20 05:08 125 1 gusting 4 7.2
2019-Nov-20 05:03 100 1 gusting 4 7.2
2019-Nov-20 04:58 081 1 gusting 3 7.2
2019-Nov-20 04:53 092 0 gusting 3 7.2
2019-Nov-20 04:48 072 0 gusting 3 7.8
2019-Nov-20 04:43 113 1 gusting 6 7.8
2019-Nov-20 04:38 047 1 gusting 6 7.8
2019-Nov-20 04:33 108 1 gusting 2 7.8
2019-Nov-20 04:28 100 1 gusting 4 7.8
2019-Nov-20 04:23 089 1 gusting 4 7.8
2019-Nov-20 04:18 120 0 gusting 2 7.8
2019-Nov-20 04:13 114 0 gusting 2 7.8
2019-Nov-20 04:07 173 1 gusting 3 7.8
2019-Nov-20 04:02 102 1 gusting 3 7.8
2019-Nov-20 03:57 087 1 gusting 3 8.3
2019-Nov-20 03:52 081 2 gusting 5 7.8
2019-Nov-20 03:47 154 2 gusting 5 7.8
2019-Nov-20 03:42 269 1 gusting 6 7.8
2019-Nov-20 03:37 017 1 gusting 6 8.3
2019-Nov-20 03:32 064 1 gusting 4 7.8
2019-Nov-20 03:27 168 1 gusting 4 8.3
2019-Nov-20 03:22 147 1 gusting 6 8.3
2019-Nov-20 03:17 137 1 gusting 6 7.8
2019-Nov-20 03:12 079 1 gusting 3 7.8
2019-Nov-20 03:07 123 1 gusting 3 8.3
2019-Nov-20 03:02 137 1 gusting 3 7.8
2019-Nov-20 02:57 128 1 gusting 3 7.8
2019-Nov-20 02:52 115 1 gusting 3 7.8
2019-Nov-20 02:47 123 1 gusting 3 7.8
2019-Nov-20 02:42 325 1 gusting 3 7.8
2019-Nov-20 02:37 181 1 gusting 4 7.8
2019-Nov-20 02:32 182 1 gusting 5 7.8
2019-Nov-20 02:27 148 1 gusting 5 7.8
2019-Nov-20 02:22 155 0 gusting 4 8.3
2019-Nov-20 02:17 120 0 gusting 6 7.8
2019-Nov-20 02:12 133 1 gusting 6 7.8
2019-Nov-20 02:07 141 0 gusting 3 7.8
2019-Nov-20 02:02 258 1 gusting 7 8.3
2019-Nov-20 01:57 218 3 gusting 8 8.3
2019-Nov-20 01:52 326 3 gusting 8 8.3
2019-Nov-20 01:47 229 3 gusting 10 8.3
2019-Nov-20 01:42 244 3 gusting 10 8.3
2019-Nov-20 01:37 297 3 gusting 9 8.3
2019-Nov-20 01:32 188 3 gusting 8 8.3
2019-Nov-20 01:27 229 4 gusting 8 8.3
2019-Nov-20 01:22 337 2 gusting 7 8.3
2019-Nov-20 01:17 283 2 gusting 8 8.3
2019-Nov-20 01:12 229 2 gusting 8 8.3
2019-Nov-20 01:07 236 2 gusting 9 8.3
2019-Nov-20 01:02 313 2 gusting 9 8.3
2019-Nov-20 00:57 254 2 gusting 9 7.8
2019-Nov-20 00:52 306 3 gusting 10 7.8
2019-Nov-20 00:47 292 2 gusting 10 8.3
2019-Nov-20 00:42 285 2 gusting 8 8.3
2019-Nov-20 00:37 228 2 gusting 8 8.3
2019-Nov-20 00:32 244 2 gusting 7 8.3
2019-Nov-20 00:27 323 1 gusting 9 8.3
2019-Nov-20 00:22 274 2 gusting 9 8.3
2019-Nov-20 00:17 291 3 gusting 13 8.3
2019-Nov-20 00:12 310 3 gusting 13 8.3
2019-Nov-20 00:07 285 3 gusting 11 8.3
2019-Nov-20 00:02 295 4 gusting 12 8.3
2019-Nov-19 23:57 310 4 gusting 12 8.9
2019-Nov-19 23:52 227 4 gusting 12 8.9
2019-Nov-19 23:47 279 4 gusting 15 8.9
2019-Nov-19 23:42 291 4 gusting 15 8.9
2019-Nov-19 23:37 244 3 gusting 10 8.9
2019-Nov-19 23:32 310 3 gusting 10 8.9
2019-Nov-19 23:27 290 3 gusting 10 8.9
2019-Nov-19 23:22 142 2 gusting 10 8.9
2019-Nov-19 23:17 285 2 gusting 7 8.3
2019-Nov-19 23:12 209 2 gusting 11 8.9
2019-Nov-19 23:07 258 2 gusting 11 9.4
2019-Nov-19 23:02 333 1 gusting 10 8.9
2019-Nov-19 22:57 289 2 gusting 8 9.4
2019-Nov-19 22:52 156 2 gusting 8 8.9
2019-Nov-19 22:47 182 1 gusting 7 8.9
2019-Nov-19 22:42 301 1 gusting 7 8.9
2019-Nov-19 22:37 208 1 gusting 11 8.9
2019-Nov-19 22:32 172 1 gusting 11 8.9
2019-Nov-19 22:27 205 2 gusting 11 8.9
2019-Nov-19 22:22 323 3 gusting 11 8.9
2019-Nov-19 22:17 280 4 gusting 12 8.9
2019-Nov-19 22:12 262 4 gusting 12 8.9
2019-Nov-19 22:07 314 4 gusting 13 8.9
2019-Nov-19 22:02 239 4 gusting 13 8.9
2019-Nov-19 21:57 266 4 gusting 11 9.4
2019-Nov-19 21:52 335 4 gusting 14 8.9
2019-Nov-19 21:47 230 4 gusting 15 8.9
2019-Nov-19 21:42 254 4 gusting 15 8.3
2019-Nov-19 21:37 305 3 gusting 11 8.3
2019-Nov-19 21:32 009 3 gusting 12 8.3
2019-Nov-19 21:27 254 3 gusting 12 8.3
2019-Nov-19 21:22 323 3 gusting 12 8.3
2019-Nov-19 21:17 209 3 gusting 12 8.3
2019-Nov-19 21:12 298 4 gusting 12 8.3
2019-Nov-19 21:07 160 4 gusting 13 8.3
2019-Nov-19 21:02 300 2 gusting 13 8.3
2019-Nov-19 20:57 335 2 gusting 6 8.3
2019-Nov-19 20:52 282 2 gusting 6 8.3
2019-Nov-19 20:47 189 3 gusting 10 8.3
2019-Nov-19 20:42 325 3 gusting 10 8.3
2019-Nov-19 20:36 357 2 gusting 7 8.3
2019-Nov-19 20:31 106 2 gusting 9 8.3
2019-Nov-19 20:26 206 3 gusting 9 8.3
2019-Nov-19 20:21 176 3 gusting 9 8.3
2019-Nov-19 20:16 269 2 gusting 9 8.3
2019-Nov-19 20:11 323 2 gusting 7 8.3
2019-Nov-19 20:06 190 3 gusting 9 8.3
2019-Nov-19 20:01 207 3 gusting 9 8.3
2019-Nov-19 19:56 321 3 gusting 11 8.3
2019-Nov-19 19:51 244 3 gusting 11 8.3
2019-Nov-19 19:46 267 4 gusting 11 8.3
2019-Nov-19 19:41 306 4 gusting 11 8.3
2019-Nov-19 19:36 052 4 gusting 11 8.3
2019-Nov-19 19:31 277 4 gusting 12 8.3
2019-Nov-19 19:26 240 4 gusting 14 8.3
2019-Nov-19 19:21 327 4 gusting 14 8.3
2019-Nov-19 19:16 259 4 gusting 15 8.3
2019-Nov-19 19:11 319 5 gusting 15 8.3
2019-Nov-19 19:06 276 4 gusting 12 8.3
2019-Nov-19 19:01 314 5 gusting 12 8.3
2019-Nov-19 18:56 208 6 gusting 13 8.3
2019-Nov-19 18:51 216 5 gusting 13 8.3
2019-Nov-19 18:46 293 4 gusting 11 8.3
2019-Nov-19 18:41 229 3 gusting 8 8.3
2019-Nov-19 18:36 263 4 gusting 13 8.3
2019-Nov-19 18:31 244 5 gusting 13 8.3
2019-Nov-19 18:26 300 4 gusting 13 7.8
2019-Nov-19 18:21 298 4 gusting 13 7.8
2019-Nov-19 18:16 254 4 gusting 12 7.8
2019-Nov-19 18:11 276 5 gusting 14 7.8
2019-Nov-19 18:06 262 6 gusting 16 7.8
2019-Nov-19 18:01 308 4 gusting 16 7.8
2019-Nov-19 17:56 173 4 gusting 11 7.8
2019-Nov-19 17:51 305 5 gusting 14 7.8
2019-Nov-19 17:46 268 4 gusting 14 7.8
2019-Nov-19 17:41 268 3 gusting 9 7.8
2019-Nov-19 17:36 271 4 gusting 10 7.8
2019-Nov-19 17:31 291 4 gusting 10 7.8
2019-Nov-19 17:26 262 4 gusting 10 7.8
2019-Nov-19 17:21 325 4 gusting 12 7.8
2019-Nov-19 17:16 279 4 gusting 12 7.8
2019-Nov-19 17:11 297 4 gusting 13 7.8
2019-Nov-19 17:06 262 4 gusting 13 7.2
2019-Nov-19 17:01 281 5 gusting 13 7.2
2019-Nov-19 16:56 265 6 gusting 13 7.2
2019-Nov-19 16:51 328 4 gusting 12 7.2
2019-Nov-19 16:46 244 4 gusting 12 7.2
2019-Nov-19 16:41 304 5 gusting 12 7.2
2019-Nov-19 16:36 287 4 gusting 10 7.2
2019-Nov-19 16:31 285 4 gusting 13 7.2
2019-Nov-19 16:26 299 5 gusting 13 7.2
2019-Nov-19 16:21 283 4 gusting 12 7.2
2019-Nov-19 16:16 304 4 gusting 12 7.2
2019-Nov-19 16:11 244 4 gusting 12 7.2
2019-Nov-19 16:06 264 3 gusting 11 7.2
2019-Nov-19 16:01 286 3 gusting 11 7.2
2019-Nov-19 15:56 229 1 gusting 7 7.2
2019-Nov-19 15:51 289 1 gusting 7 7.2
2019-Nov-19 15:46 228 1 gusting 10 7.2
2019-Nov-19 15:41 269 2 gusting 10 7.2
2019-Nov-19 15:36 224 3 gusting 10 7.2
2019-Nov-19 15:31 301 3 gusting 12 7.2
2019-Nov-19 15:26 310 4 gusting 12 7.2
2019-Nov-19 15:21 325 4 gusting 9 7.8
2019-Nov-19 15:16 336 4 gusting 11 7.8
2019-Nov-19 15:11 289 3 gusting 11 7.8
2019-Nov-19 15:06 316 4 gusting 8 7.8
2019-Nov-19 15:01 313 5 gusting 10 7.8
2019-Nov-19 14:56 310 5 gusting 12 7.8
2019-Nov-19 14:51 320 3 gusting 12 7.8
2019-Nov-19 14:46 244 4 gusting 10 7.8
2019-Nov-19 14:41 310 4 gusting 10 7.8
2019-Nov-19 14:36 323 3 gusting 9 7.8
2019-Nov-19 14:31 323 3 gusting 8 7.8
2019-Nov-19 14:26 320 3 gusting 9 7.8
2019-Nov-19 14:21 263 3 gusting 9 7.8
2019-Nov-19 14:16 316 2 gusting 7 7.8
2019-Nov-19 14:11 262 2 gusting 7 7.8
2019-Nov-19 14:06 283 3 gusting 13 7.8
2019-Nov-19 14:01 292 3 gusting 13 7.8
2019-Nov-19 13:56 295 3 gusting 9 7.8
2019-Nov-19 13:51 240 2 gusting 9 7.8
2019-Nov-19 13:46 312 3 gusting 10 7.8
2019-Nov-19 13:41 318 3 gusting 10 7.8
2019-Nov-19 13:36 329 3 gusting 7 7.8
2019-Nov-19 13:31 308 2 gusting 6 7.8
2019-Nov-19 13:26 273 2 gusting 6 7.8
2019-Nov-19 13:21 293 2 gusting 7 7.8
2019-Nov-19 13:16 296 2 gusting 7 7.8
2019-Nov-19 13:11 244 2 gusting 9 7.8
2019-Nov-19 13:05 291 2 gusting 9 7.8
2019-Nov-19 13:00 296 1 gusting 3 7.8
2019-Nov-19 12:55 273 1 gusting 4 7.8
2019-Nov-19 12:50 265 1 gusting 4 7.8
2019-Nov-19 12:45 346 1 gusting 4 7.8
2019-Nov-19 12:40 285 1 gusting 3 7.8
2019-Nov-19 12:35 321 1 gusting 3 7.8
2019-Nov-19 12:30 208 1 gusting 6 7.8
2019-Nov-19 12:25 289 1 gusting 6 7.8
2019-Nov-19 12:20 306 0 gusting 6 7.8
2019-Nov-19 12:15 208 7.8
2019-Nov-19 12:10 008 0 gusting 4 7.8
2019-Nov-19 12:05 291 1 gusting 6 7.8
2019-Nov-19 12:00 244 2 gusting 6 7.8
2019-Nov-19 11:55 320 2 gusting 6 7.8
2019-Nov-19 11:50 233 2 gusting 6 7.8
2019-Nov-19 11:45 254 1 gusting 6 7.8
2019-Nov-19 11:40 288 1 gusting 6 7.8
2019-Nov-19 11:35 239 0 gusting 4 7.8
2019-Nov-19 11:30 178 0 gusting 4 7.8
2019-Nov-19 11:25 293 0 gusting 2 7.8
2019-Nov-19 11:20 228 0 gusting 2 7.8
2019-Nov-19 11:15 210 0 gusting 3 7.8
2019-Nov-19 11:10 288 0 gusting 3 7.8
2019-Nov-19 11:05 276 1 gusting 4 8.3
2019-Nov-19 11:00 305 1 gusting 6 8.3
2019-Nov-19 10:50 244 1 gusting 8 8.3
2019-Nov-19 10:45 302 2 gusting 8 8.3
2019-Nov-19 10:40 314 1 gusting 6 8.3
2019-Nov-19 10:35 295 1 gusting 6 8.3
2019-Nov-19 10:30 329 2 gusting 7 8.3
2019-Nov-19 10:25 268 2 gusting 7 8.3
2019-Nov-19 10:20 209 2 gusting 9 8.3
2019-Nov-19 10:15 229 3 gusting 11 8.3
2019-Nov-19 10:10 249 3 gusting 11 8.3
2019-Nov-19 10:05 302 2 gusting 8 8.3
2019-Nov-19 10:00 327 2 gusting 8 8.3
2019-Nov-19 09:55 310 3 gusting 11 8.3
2019-Nov-19 09:50 288 4 gusting 11 8.3
2019-Nov-19 09:45 321 3 gusting 10 8.3
2019-Nov-19 09:40 244 2 gusting 9 8.3
2019-Nov-19 09:35 306 2 gusting 6 8.3
2019-Nov-19 09:30 258 1 gusting 6 8.3
2019-Nov-19 09:25 288 1 gusting 6 8.3
2019-Nov-19 09:20 126 1 gusting 4 8.3
2019-Nov-19 09:15 318 2 gusting 8 8.3
2019-Nov-19 09:10 324 2 gusting 8 8.3
2019-Nov-19 09:05 298 2 gusting 6 8.3
2019-Nov-19 09:00 339 2 gusting 7 8.3
2019-Nov-19 08:55 178 2 gusting 7 8.3
2019-Nov-19 08:50 201 2 gusting 6 8.3
2019-Nov-19 08:45 006 2 gusting 7 8.3
2019-Nov-19 08:40 187 2 gusting 7 8.3
2019-Nov-19 08:35 254 2 gusting 7 8.3
2019-Nov-19 08:30 286 2 gusting 7 8.3
2019-Nov-19 08:25 223 2 gusting 6 8.3
2019-Nov-19 08:20 338 2 gusting 7 8.3
2019-Nov-19 08:15 234 2 gusting 7 8.3
2019-Nov-19 08:10 286 2 gusting 7 8.3
2019-Nov-19 08:05 177 2 gusting 7 8.3
2019-Nov-19 08:00 220 2 gusting 7 8.3
2019-Nov-19 07:55 195 2 gusting 7 8.3
2019-Nov-19 07:50 302 2 gusting 5 8.3
2019-Nov-19 07:44 188 2 gusting 8 8.3
2019-Nov-19 07:39 275 2 gusting 8 8.3
2019-Nov-19 07:34 244 2 gusting 7 8.3
2019-Nov-19 07:29 300 1 gusting 7 8.3
2019-Nov-19 07:24 249 1 gusting 4 8.3
2019-Nov-19 07:19 231 1 gusting 9 8.3
2019-Nov-19 07:14 305 1 gusting 9 8.3
2019-Nov-19 07:09 226 1 gusting 5 8.3
2019-Nov-19 07:04 228 1 gusting 6 8.3
2019-Nov-19 06:59 228 1 gusting 6 8.3
2019-Nov-19 06:54 222 1 gusting 5 8.3
2019-Nov-19 06:49 225 1 gusting 5 8.3
2019-Nov-19 06:44 145 1 gusting 5 8.9
2019-Nov-19 06:39 254 1 gusting 6 8.9
2019-Nov-19 06:34 306 1 gusting 6 8.9
2019-Nov-19 06:29 271 1 gusting 3 8.9
2019-Nov-19 06:24 227 1 gusting 3 8.9
2019-Nov-19 06:19 320 1 gusting 4 8.9
2019-Nov-19 06:14 209 1 gusting 4 8.9
2019-Nov-19 06:09 039 1 gusting 5 8.3
2019-Nov-19 06:04 012 1 gusting 6 8.3
2019-Nov-19 05:59 116 1 gusting 6 8.3
2019-Nov-19 05:54 061 1 gusting 6 8.3
2019-Nov-19 05:49 131 1 gusting 6 8.3
2019-Nov-19 05:44 352 1 gusting 5 8.3
2019-Nov-19 05:39 047 1 gusting 4 8.3
2019-Nov-19 05:34 094 0 gusting 3 8.3
2019-Nov-19 05:29 056 0 gusting 3 8.3
2019-Nov-19 05:24 057 1 gusting 5 8.3
2019-Nov-19 05:19 054 1 gusting 5 8.3
2019-Nov-19 05:14 077 1 gusting 5 8.3
2019-Nov-19 05:09 066 1 gusting 5 8.3
2019-Nov-19 05:04 021 1 gusting 5 8.3
2019-Nov-19 04:59 088 1 gusting 7 8.3
2019-Nov-19 04:54 017 2 gusting 8 8.3
2019-Nov-19 04:49 085 2 gusting 9 8.3
2019-Nov-19 04:44 060 1 gusting 5 8.3
2019-Nov-19 04:39 037 1 gusting 5 8.3
2019-Nov-19 04:34 004 1 gusting 5 8.3
2019-Nov-19 04:29 073 1 gusting 7 8.3
2019-Nov-19 04:24 327 2 gusting 7 8.3
2019-Nov-19 04:19 341 2 gusting 7 8.3
2019-Nov-19 04:14 050 2 gusting 7 8.3
2019-Nov-19 04:09 014 3 gusting 7 8.3
2019-Nov-19 04:04 071 2 gusting 6 8.3
2019-Nov-19 03:59 329 2 gusting 7 8.3
2019-Nov-19 03:54 039 3 gusting 8 8.3
2019-Nov-19 03:49 354 2 gusting 8 8.3
2019-Nov-19 03:44 050 1 gusting 4 8.3
2019-Nov-19 03:39 018 1 gusting 8 8.3
2019-Nov-19 03:34 073 2 gusting 8 8.3
2019-Nov-19 03:29 052 1 gusting 5 8.3
2019-Nov-19 03:24 055 2 gusting 6 8.3
2019-Nov-19 03:19 060 1 gusting 6 8.3
2019-Nov-19 03:14 029 1 gusting 5 8.3
2019-Nov-19 03:09 119 1 gusting 6 8.3
2019-Nov-19 03:04 026 1 gusting 6 8.3
2019-Nov-19 02:59 062 1 gusting 5 8.3
2019-Nov-19 02:54 058 1 gusting 6 8.3
2019-Nov-19 02:49 046 1 gusting 6 8.3
2019-Nov-19 02:44 073 2 gusting 5 8.3
2019-Nov-19 02:39 054 2 gusting 5 8.3
2019-Nov-19 02:34 098 1 gusting 5 8.3
2019-Nov-19 02:29 053 1 gusting 5 8.3
2019-Nov-19 02:24 043 1 gusting 4 8.3
2019-Nov-19 02:19 042 1 gusting 4 8.3
2019-Nov-19 02:14 132 0 gusting 4 8.3
2019-Nov-19 02:09 009 0 gusting 3 8.3
2019-Nov-19 02:04 043 0 gusting 3 8.3
2019-Nov-19 01:59 096 0 gusting 3 8.3
2019-Nov-19 01:54 048 0 gusting 4 8.3
2019-Nov-19 01:49 057 0 gusting 4 8.3
2019-Nov-19 01:44 342 1 gusting 4 8.3
2019-Nov-19 01:39 030 1 gusting 5 8.3
2019-Nov-19 01:34 083 1 gusting 5 8.3
2019-Nov-19 01:29 056 0 gusting 4 8.3
2019-Nov-19 01:24 058 0 gusting 4 8.3
2019-Nov-19 01:19 038 0 gusting 3 8.3
2019-Nov-19 01:14 052 0 gusting 3 8.9
2019-Nov-19 01:09 358 0 gusting 4 8.9
2019-Nov-19 01:04 083 0 gusting 4 8.9
2019-Nov-19 00:59 019 0 gusting 5 8.9
2019-Nov-19 00:54 055 1 gusting 5 8.9
2019-Nov-19 00:49 015 0 gusting 2 8.9
2019-Nov-19 00:44 002 0 gusting 2 8.9
2019-Nov-19 00:39 005 0 gusting 2 8.9
2019-Nov-19 00:34 352 0 gusting 3 8.9
2019-Nov-19 00:29 063 0 gusting 3 8.9
2019-Nov-19 00:24 013 0 gusting 2 8.9
2019-Nov-19 00:19 326 0 gusting 2 8.9
2019-Nov-19 00:14 305 0 gusting 2 8.9
2019-Nov-19 00:09 297 0 gusting 1 8.9
2019-Nov-19 00:04 297 0 gusting 1 8.9
2019-Nov-18 23:59 244 8.9
2019-Nov-18 23:54 244 8.9
2019-Nov-18 23:49 244 8.9
2019-Nov-18 23:44 244 8.9
2019-Nov-18 23:39 244 8.9
2019-Nov-18 23:34 244 8.9
2019-Nov-18 23:29 244 9.4
2019-Nov-18 23:24 244 9.4
2019-Nov-18 23:19 244 0 gusting 2 9.4
2019-Nov-18 23:14 244 0 gusting 2 9.4
2019-Nov-18 23:09 050 9.4
2019-Nov-18 23:04 050 0 gusting 2 9.4
2019-Nov-18 22:59 050 1 gusting 6 9.4
2019-Nov-18 22:54 015 2 gusting 6 9.4
2019-Nov-18 22:49 346 1 gusting 5 9.4
2019-Nov-18 22:44 337 1 gusting 5 9.4
2019-Nov-18 22:39 320 0 gusting 3 9.4
2019-Nov-18 22:34 310 9.4
2019-Nov-18 22:29 309 0 gusting 1 9.4
2019-Nov-18 22:24 309 9.4
2019-Nov-18 22:19 310 0 gusting 1 9.4
2019-Nov-18 22:14 310 0 gusting 1 9.4
2019-Nov-18 22:09 310 0 gusting 2 9.4
2019-Nov-18 22:04 310 0 gusting 2 9.4
2019-Nov-18 21:59 309 1 gusting 3 9.4
2019-Nov-18 21:54 356 1 gusting 3 9.4
2019-Nov-18 21:48 318 1 gusting 3 9.4
2019-Nov-18 21:43 006 1 gusting 5 9.4
2019-Nov-18 21:38 326 1 gusting 5 9.4
2019-Nov-18 21:33 015 1 gusting 5 9.4
2019-Nov-18 21:28 337 0 gusting 2 9.4
2019-Nov-18 21:23 111 0 gusting 2 9.4
2019-Nov-18 21:18 320 1 gusting 2 9.4
2019-Nov-18 21:13 339 0 gusting 2 9.4
2019-Nov-18 21:08 314 9.4
2019-Nov-18 21:03 314 9.4
2019-Nov-18 20:58 314 0 gusting 2 9.4
2019-Nov-18 20:53 314 0 gusting 2 10.0
2019-Nov-18 20:48 320 1 gusting 2 10.0
2019-Nov-18 20:43 320 1 gusting 2 10.0
2019-Nov-18 20:38 343 0 gusting 1 10.0
2019-Nov-18 20:33 343 0 gusting 1 9.4
2019-Nov-18 20:28 249 0 gusting 2 10.0
2019-Nov-18 20:23 308 1 gusting 3 10.0
2019-Nov-18 20:18 005 1 gusting 3 10.0
2019-Nov-18 20:13 128 0 gusting 3 9.4
2019-Nov-18 20:08 209 10.0
2019-Nov-18 20:03 100 0 gusting 2 10.0
2019-Nov-18 19:58 100 0 gusting 2 10.0
2019-Nov-18 19:53 100 0 gusting 2 10.0
2019-Nov-18 19:48 100 0 gusting 2 9.4
2019-Nov-18 19:43 134 0 gusting 3 9.4
2019-Nov-18 19:38 131 1 gusting 3 9.4
2019-Nov-18 19:33 077 0 gusting 3 9.4
2019-Nov-18 19:28 121 9.4
2019-Nov-18 19:23 121 9.4
2019-Nov-18 19:18 121 0 gusting 1 9.4
2019-Nov-18 19:13 121 0 gusting 1 9.4
2019-Nov-18 19:08 122 0 gusting 2 9.4
2019-Nov-18 19:03 177 1 gusting 4 9.4
2019-Nov-18 18:58 105 1 gusting 4 9.4
2019-Nov-18 18:53 096 0 gusting 3 9.4
2019-Nov-18 18:48 146 1 gusting 3 9.4
2019-Nov-18 18:43 109 1 gusting 4 9.4
2019-Nov-18 18:38 083 0 gusting 4 9.4
2019-Nov-18 18:33 336 0 gusting 2 9.4
2019-Nov-18 18:28 337 0 gusting 2 9.4
2019-Nov-18 18:23 140 0 gusting 2 9.4
2019-Nov-18 18:18 244 0 gusting 3 9.4
2019-Nov-18 18:13 229 1 gusting 3 9.4
2019-Nov-18 18:08 034 2 gusting 5 9.4
2019-Nov-18 18:03 106 2 gusting 5 9.4
2019-Nov-18 17:58 129 2 gusting 4 9.4
2019-Nov-18 17:53 110 2 gusting 5 9.4
2019-Nov-18 17:48 118 3 gusting 5 9.4
2019-Nov-18 17:43 127 3 gusting 7 9.4
2019-Nov-18 17:38 115 3 gusting 7 8.9
2019-Nov-18 17:33 106 2 gusting 4 8.9
2019-Nov-18 17:28 083 3 gusting 6 8.9
2019-Nov-18 17:23 108 3 gusting 6 8.9
2019-Nov-18 17:18 127 3 gusting 6 8.9
2019-Nov-18 17:13 091 3 gusting 6 8.9
2019-Nov-18 17:08 110 3 gusting 6 8.9
2019-Nov-18 17:03 092 3 gusting 6 8.9